GFSNGP_850_dewp_231.txt.gz
Dewpoint
-3 -4 -4 -3 -3 -3 -2 -2 -0 -3 -4 -6 -7 -7 -7 -7 -7 -6 -9 -11 -11 -8 -10 -13 -13 -4 -1 0 0 2 5 11 12 12 13 13 12 13 14 14 14 13 13 13
0 -4 -3 -3 -5 -5 -4 -4 -4 -4 -3 -5 -6 -6 -6 -7 -8 -10 -11 -12 -12 -9 -11 -14 -12 -11 -2 -0 2 2 3 8 11 12 12 12 12 12 13 13 13 13 12 12
-3 -6 -5 -2 -4 -6 -8 -8 -5 -4 -7 -8 -8 -8 -8 -8 -9 -9 -10 -11 -11 -9 -12 -11 -8 -7 -6 -1 0 2 2 5 10 11 11 12 12 12 12 13 12 12 12 11
-2 -3 -1 -8 -10 -10 -9 -9 -10 -7 -7 -8 -9 -10 -10 -9 -9 -9 -9 -11 -10 -10 -9 -8 -8 -7 -8 -2 -2 2 2 3 8 11 11 11 12 12 12 12 12 12 11 10
-1 -2 -6 -8 -10 -9 -7 -10 -11 -9 -9 -9 -10 -10 -9 -9 -9 -9 -10 -9 -9 -9 -8 -7 -8 -8 -4 -2 -2 -0 3 4 5 9 11 11 11 11 11 11 11 11 10 8
-2 -1 -3 -10 -10 -9 -8 -4 -11 -10 -9 -9 -10 -7 -8 -10 -9 -8 -8 -8 -7 -7 -6 -6 -8 -7 -5 -6 -1 -1 2 3 4 6 9 10 11 11 10 10 11 9 8 6
-1 -1 -4 -8 -10 -9 -4 -6 -10 -9 -9 -9 -7 -8 -9 -8 -7 -6 -6 -5 -6 -5 -4 -4 -6 -6 -6 -7 -6 -1 0 2 4 6 7 9 10 10 10 9 8 7 6 4
-1 -1 -2 -8 -8 -6 -8 -7 -7 -7 -7 -7 -7 -6 -5 -5 -5 -6 -5 -4 -4 -4 -3 -4 -4 -5 -7 -8 -7 -2 0 2 3 5 6 8 9 9 8 8 7 5 4 1
-2 -3 -7 -6 -7 -7 -7 -6 -6 -6 -6 -5 -5 -5 -5 -6 -5 -5 -4 -3 -4 -2 -2 -3 -3 -3 -5 -9 -6 -4 -0 2 4 5 6 7 8 8 6 6 5 3 0 -3
-4 -6 -5 -6 -7 -6 -6 -5 -5 -5 -5 -5 -5 -5 -5 -5 -4 -4 -4 -4 -2 -1 -2 -2 -3 -2 -3 -4 -3 -2 -1 3 4 5 5 6 6 6 6 5 4 2 -2 -5
-4 -5 -6 -6 -6 -5 -4 -4 -4 -4 -4 -4 -4 -4 -4 -4 -4 -4 -4 -3 -2 -1 -1 -1 -2 -1 -1 -1 0 -0 1 4 5 5 5 5 5 4 4 5 3 2 -2 -5
-2 -6 -5 -5 -6 -5 -4 -4 -4 -4 -3 -4 -4 -3 -4 -3 -3 -3 -3 -2 -2 -2 -0 -0 0 1 1 0 0 1 3 4 4 4 3 3 3 1 0 3 3 -0 -4 -6
-5 -6 -5 -5 -4 -3 -3 -3 -3 -2 -2 -3 -3 -3 -2 -2 -2 -1 -0 2 2 1 0 1 1 2 2 1 1 3 4 4 3 3 3 2 2 1 -1 -1 -1 -4 -5 -2
-5 -4 -2 -2 -1 -1 -1 -0 -0 -1 -1 -0 -0 -0 -0 0 1 2 2 1 1 1 1 2 2 2 2 2 2 2 3 2 3 2 2 2 1 -0 -0 -2 -3 -2 -0 0
-3 -1 -1 -1 -2 -2 -3 -3 -2 -1 -0 0 0 1 1 2 2 2 1 0 1 2 2 2 2 2 2 2 0 1 1 0 0 0 0 -0 -1 -0 -3 -3 -2 -2 -2 -2
-1 -1 -3 -3 -3 -2 -2 -2 -2 -2 -1 -1 -0 0 0 -0 0 0 0 0 1 2 2 2 1 1 1 -1 -0 -0 -1 -1 -1 -2 -3 -3 -2 -2 -3 -1 -1 -1 -2 -3
-2 -2 -2 -3 -3 -2 -2 -2 -2 -2 -2 -1 -1 -1 -1 -1 -1 -1 -1 -1 -1 -1 -0 -0 -0 -1 -2 -2 -2 -2 -2 -3 -2 -3 -4 -3 -3 -3 -1 -1 -1 -2 -3 -3
-3 -3 -3 -3 -3 -3 -3 -2 -2 -2 -1 -1 -2 -2 -3 -2 -3 -3 -2 -2 -2 -2 -2 -2 -2 -2 -2 -2 -2 -3 -3 -3 -3 -4 -3 -3 -1 -1 -1 -2 -2 -3 -4 -5
-3 -4 -3 -3 -3 -3 -2 -2 -2 -1 -1 -2 -3 -3 -3 -4 -4 -4 -3 -3 -3 -3 -3 -3 -3 -3 -3 -3 -3 -3 -4 -4 -3 -3 -2 -1 -1 -2 -2 -3 -3 -3 -5 -6
-4 -4 -3 -3 -3 -3 -2 -2 -2 -1 -2 -2 -3 -4 -4 -4 -4 -4 -4 -4 -4 -4 -4 -3 -3 -3 -4 -4 -3 -3 -3 -2 -2 -2 -2 -2 -2 -3 -3 -3 -4 -5 -6 -6
-4 -3 -3 -3 -3 -3 -2 -2 -2 -1 -1 -2 -3 -3 -3 -3 -4 -4 -4 -4 -4 -3 -3 -2 -2 -2 -2 -2 -2 -2 -2 -2 -2 -2 -3 -3 -3 -4 -4 -5 -6 -6 -6 -7
-3 -3 -3 -3 -3 -3 -3 -3 -2 -1 -1 -2 -2 -3 -2 -2 -2 -3 -3 -3 -2 -2 -2 -2 -2 -2 -2 -2 -2 -2 -3 -3 -3 -3 -4 -4 -4 -5 -5 -6 -6 -6 -7 -7
-3 -3 -3 -3 -3 -3 -3 -3 -3 -2 -1 -1 -1 -2 -2 -2 -2 -2 -2 -2 -2 -3 -4 -4 -3 -3 -3 -4 -4 -4 -4 -4 -4 -4 -5 -5 -5 -6 -6 -6 -7 -7 -8 -8
-3 -3 -4 -2 -3 -3 -3 -3 -3 -3 -2 -2 -1 -1 -1 -1 -2 -2 -2 -3 -3 -4 -5 -5 -5 -5 -5 -5 -5 -5 -5 -5 -5 -5 -5 -6 -6 -6 -7 -7 -7 -8 -8 -9
-3 -4 -4 -4 -3 -3 -3 -3 -3 -3 -3 -2 -2 -2 -2 -1 -2 -2 -2 -3 -4 -5 -5 -5 -5 -5 -5 -5 -5 -5 -5 -5 -5 -6 -6 -6 -6 -6 -7 -7 -8 -8 -9 -9
-3 -3 -4 -5 -5 -4 -3 -3 -3 -2 -3 -3 -3 -3 -3 -3 -3 -3 -4 -4 -5 -5 -5 -6 -6 -6 -6 -6 -6 -6 -5 -5 -5 -6 -6 -6 -6 -6 -7 -7 -8 -8 -9 -9
-3 -3 -4 -5 -5 -5 -4 -4 -3 -3 -3 -3 -3 -4 -3 -4 -4 -4 -4 -5 -5 -5 -6 -6 -6 -7 -6 -6 -6 -6 -6 -5 -6 -6 -6 -6 -6 -7 -7 -8 -8 -9 -9 -10

GFSNGP_850_dewp_234.txt.gz
Dewpoint
-5 -7 -7 -7 -7 -7 -5 -2 0 -3 -4 -6 -7 -8 -9 -9 -8 -9 -11 -12 -12 -12 -11 -9 -9 -6 -2 1 2 1 3 3 7 11 12 12 12 13 13 13 13 13 13 14
-2 -7 -8 -8 -8 -9 -9 -8 -6 -5 -5 -8 -10 -10 -10 -9 -8 -9 -11 -13 -12 -12 -12 -10 -9 -6 -2 -1 1 1 0 6 5 9 12 12 13 13 12 13 13 13 13 13
-2 -8 -7 -2 -7 -10 -10 -11 -11 -7 -8 -11 -11 -11 -11 -11 -12 -11 -10 -11 -12 -12 -12 -10 -9 -6 -4 -2 -0 2 1 1 3 5 10 12 12 12 12 12 12 12 13 13
-1 -3 -1 -8 -11 -11 -10 -12 -14 -15 -15 -15 -15 -15 -14 -14 -13 -12 -12 -11 -11 -11 -9 -8 -8 -7 -5 -4 -1 0 3 0 1 4 7 11 11 11 12 11 12 12 12 12
-0 -2 -6 -9 -11 -10 -10 -9 -13 -12 -12 -13 -13 -12 -11 -12 -12 -11 -10 -9 -8 -8 -8 -8 -7 -6 -5 -4 -1 -2 1 3 0 2 4 9 10 10 11 11 11 12 12 11
-1 -1 -2 -10 -12 -12 -11 -5 -11 -11 -11 -10 -10 -7 -9 -9 -8 -8 -8 -7 -6 -6 -6 -6 -7 -5 -3 -4 -1 -1 -2 1 2 -0 2 5 9 10 10 10 10 10 11 11
-1 -1 -5 -10 -11 -12 -5 -6 -10 -9 -9 -8 -6 -7 -7 -7 -6 -7 -7 -6 -6 -6 -5 -5 -5 -4 -3 -1 -1 -1 -1 -7 -4 -1 1 3 6 9 10 9 9 9 9 9
-1 -1 -2 -10 -10 -7 -9 -9 -8 -8 -7 -6 -6 -5 -5 -5 -5 -6 -6 -6 -7 -6 -6 -4 -4 -3 -2 -2 -1 0 0 -8 -6 -2 -0 2 5 8 8 8 8 8 7 7
-6 -5 -10 -10 -9 -8 -8 -7 -6 -6 -5 -5 -5 -5 -5 -5 -5 -5 -6 -6 -6 -6 -5 -4 -3 -2 -1 -2 0 -0 -2 -5 -5 -2 -1 2 5 7 7 6 7 7 6 6
-6 -7 -8 -8 -8 -8 -7 -7 -6 -5 -5 -5 -4 -4 -4 -5 -5 -5 -5 -5 -6 -6 -5 -4 -2 -1 -1 -1 -2 0 -2 -2 -4 -2 -1 3 5 6 7 6 5 5 5 5
-5 -7 -7 -7 -7 -6 -6 -5 -5 -5 -4 -4 -4 -4 -4 -4 -5 -5 -5 -5 -4 -4 -3 -3 -3 -2 -1 0 -0 -3 -2 -1 -1 -1 2 3 5 5 5 6 6 7 5 5
-2 -7 -6 -6 -6 -5 -4 -4 -3 -2 -2 -2 -2 -2 -3 -3 -3 -3 -3 -3 -3 -3 -3 -3 -2 -2 -1 0 1 1 -1 -0 0 0 3 4 4 4 2 3 3 4 4 3
-7 -8 -7 -6 -5 -4 -3 -1 -1 -2 -2 -1 -1 -1 -1 -2 -2 -2 -2 -2 -2 -1 -0 1 1 2 1 0 1 2 1 1 1 2 3 4 3 2 1 -1 0 1 2 2
-7 -6 -4 -4 -2 -1 -1 -2 -2 -3 -3 -2 -2 -1 0 1 1 0 1 1 1 2 2 1 1 1 1 1 1 1 2 2 1 3 2 2 2 1 0 -1 -2 -2 -1 0
-4 -3 -0 -1 -2 -3 -3 -3 -3 -3 -2 -1 -1 -1 -1 -1 -0 -0 -0 -0 -0 0 0 1 2 2 1 1 2 1 1 1 2 1 1 1 0 -1 -1 -2 -1 -1 -1 -3
-1 -2 -3 -3 -3 -3 -3 -3 -2 -2 -2 -2 -2 -2 -1 -1 -2 -2 -1 -1 -1 -1 -0 1 2 2 1 1 1 1 0 0 1 -0 -1 -1 -2 -2 -2 -2 -1 -3 -3 -2
-2 -3 -2 -3 -3 -3 -3 -2 -2 -2 -3 -2 -2 -2 -3 -3 -3 -3 -3 -2 -2 -1 -1 -1 -1 -1 -1 -1 -1 -1 -1 -1 -2 -2 -2 -2 -3 -3 -3 -3 -3 -3 -2 -2
-3 -3 -3 -3 -2 -3 -3 -3 -3 -3 -2 -2 -3 -3 -3 -4 -4 -4 -3 -3 -3 -2 -2 -2 -2 -2 -2 -2 -2 -2 -2 -3 -3 -3 -3 -3 -3 -3 -4 -4 -3 -3 -3 -4
-3 -3 -2 -2 -3 -3 -4 -3 -3 -2 -2 -2 -3 -4 -4 -4 -4 -4 -4 -4 -4 -4 -4 -4 -3 -3 -3 -3 -3 -3 -4 -4 -4 -4 -4 -4 -5 -4 -3 -2 -3 -3 -4 -5
-3 -2 -3 -3 -3 -3 -4 -3 -2 -1 -2 -3 -4 -4 -4 -4 -5 -4 -4 -5 -5 -5 -4 -4 -4 -4 -4 -4 -4 -4 -4 -5 -5 -5 -5 -4 -4 -3 -3 -4 -3 -4 -5 -5
-3 -3 -3 -3 -3 -3 -3 -3 -2 -1 -1 -3 -3 -3 -4 -4 -3 -3 -4 -5 -4 -4 -4 -4 -4 -5 -5 -4 -5 -5 -5 -5 -5 -5 -5 -4 -4 -4 -3 -4 -4 -5 -5 -5
-4 -3 -3 -3 -3 -3 -3 -3 -3 -2 -2 -3 -3 -3 -3 -3 -3 -3 -3 -3 -3 -3 -3 -3 -3 -3 -4 -3 -3 -4 -4 -4 -4 -4 -4 -3 -3 -4 -4 -4 -5 -5 -6 -6
-3 -3 -3 -3 -3 -3 -3 -3 -3 -2 -2 -2 -2 -2 -2 -3 -3 -3 -3 -3 -3 -3 -3 -3 -3 -3 -3 -3 -3 -3 -2 -3 -3 -3 -3 -3 -4 -4 -5 -5 -6 -6 -6 -6
-3 -3 -4 -4 -3 -3 -3 -3 -3 -3 -3 -3 -2 -2 -2 -2 -2 -3 -4 -4 -5 -5 -5 -4 -5 -5 -4 -4 -4 -3 -3 -3 -4 -4 -4 -4 -5 -6 -6 -6 -6 -6 -7 -7
-3 -3 -4 -3 -3 -3 -3 -3 -3 -3 -3 -2 -2 -2 -2 -2 -3 -3 -4 -5 -5 -6 -6 -6 -6 -6 -5 -5 -5 -5 -5 -5 -5 -5 -5 -5 -6 -6 -6 -7 -7 -7 -7 -8
-3 -3 -3 -4 -4 -4 -4 -3 -3 -3 -3 -3 -3 -3 -2 -3 -3 -4 -5 -5 -6 -6 -6 -6 -6 -6 -5 -5 -5 -5 -5 -5 -6 -6 -6 -6 -6 -7 -7 -8 -8 -8 -8 -9
-3 -3 -4 -3 -4 -4 -4 -4 -3 -3 -3 -4 -3 -3 -3 -4 -4 -4 -5 -5 -6 -6 -7 -6 -6 -6 -5 -5 -5 -5 -5 -5 -6 -6 -6 -7 -7 -7 -8 -8 -8 -9 -9 -10

GFSNGP_850_dewp_240.txt.gz
Dewpoint
-6 -7 -8 -10 -11 -11 -9 -4 -0 -2 -3 -6 -6 0 -1 -3 -8 -8 -10 -8 -8 -7 -8 -9 -8 -9 -9 -7 -6 -2 -0 2 3 5 8 7 13 14 13 13 14 14 13 13
-1 -7 -9 -10 -10 -10 -11 -11 -10 -11 -10 -12 -13 -14 -12 -10 -10 -11 -11 -11 -10 -9 -9 -10 -11 -10 -10 -8 -6 -5 -4 -2 0 2 2 5 3 7 12 13 12 12 12 12
-1 -6 -6 -3 -8 -10 -11 -13 -13 -11 -13 -15 -14 -15 -15 -15 -14 -14 -14 -13 -13 -12 -12 -11 -11 -11 -8 -7 -7 -6 -5 -5 -1 -1 0 0 -0 2 5 9 11 12 11 11
-0 -3 -1 -6 -10 -12 -12 -13 -13 -13 -14 -15 -16 -15 -12 -12 -6 -6 -7 -7 -7 -8 -10 -10 -10 -8 -7 -7 -7 -6 -6 -5 -4 -1 -1 1 1 0 2 7 11 12 12 12
-0 -2 -5 -8 -8 -8 -11 -11 -5 -8 -10 -8 -7 -7 -10 -9 -6 -6 -5 -5 -5 -6 -6 -7 -8 -7 -6 -6 -6 -6 -6 -5 -4 -2 -1 -1 0 0 0 2 8 11 11 11
0 1 0 -7 -9 -11 -11 -6 -5 -5 -6 -6 -7 -3 -5 -7 -6 -6 -6 -6 -6 -6 -6 -6 -7 -6 -6 -6 -6 -6 -5 -6 -5 -3 -1 -1 -1 2 -1 -3 2 8 10 10
-1 -1 -5 -11 -8 -9 -5 -3 -7 -8 -7 -6 -5 -5 -5 -5 -6 -6 -6 -5 -5 -6 -6 -6 -6 -6 -6 -6 -6 -5 -5 -5 -4 -3 -1 -1 -1 -0 -1 -4 -2 3 8 9
-2 -1 0 -6 -7 -5 -7 -9 -9 -7 -7 -4 -4 -4 -4 -5 -5 -5 -5 -5 -5 -5 -5 -6 -6 -6 -5 -5 -6 -6 -5 -4 -3 -3 -1 -0 0 -1 -5 -5 -2 3 6 7
-4 -4 -6 -10 -10 -11 -10 -9 -8 -5 -4 -4 -4 -4 -4 -3 -4 -4 -3 -4 -3 -4 -4 -3 -6 -6 -5 -5 -5 -5 -5 -5 -3 -1 -0 0 -1 -2 -4 -5 -3 2 5 6
-4 -6 -8 -9 -10 -11 -10 -7 -5 -6 -6 -5 -4 -3 -2 -2 -2 -2 -2 -2 -3 -3 -3 -3 -3 -5 -5 -5 -5 -5 -5 -5 -3 -1 0 1 0 -1 -3 -3 -3 0 4 5
-5 -7 -8 -7 -7 -7 -8 -7 -7 -7 -5 -3 -2 -2 -3 -3 -3 -3 -3 -3 -3 -2 -2 -1 -1 -2 -3 -5 -5 -4 -4 -4 -3 -2 -1 1 1 1 -2 -2 -1 1 3 4
-1 -6 -5 -6 -6 -7 -8 -6 -3 -2 -3 -4 -4 -4 -4 -4 -3 -3 -3 -2 -2 -2 -1 -1 1 1 1 1 1 -1 -2 -2 -2 -2 -2 -1 1 0 0 -1 -1 2 3 4
-8 -9 -4 -3 -5 -5 -3 -4 -5 -4 -4 -4 -4 -4 -3 -1 -1 -1 -1 -1 -0 -0 -0 -1 -1 -1 -0 0 1 1 2 2 1 2 2 2 1 2 1 0 1 2 3 3
-8 -2 -1 -5 -6 -7 -6 -4 -4 -4 -3 -3 -2 -1 -1 -2 -2 -2 -2 -2 -2 -2 -2 -2 -1 -1 -1 -1 -1 -0 -0 -0 -0 -0 1 1 1 3 2 0 1 1 1 1
-5 -7 -7 -7 -7 -4 -4 -3 -3 -3 -3 -2 -2 -2 -2 -2 -2 -3 -3 -3 -3 -3 -3 -3 -3 -3 -2 -2 -2 -1 -1 -1 -1 -1 1 2 2 2 1 0 1 1 0 -1
-7 -6 -7 -5 -4 -3 -3 -2 -2 -3 -2 -2 -3 -3 -3 -3 -4 -4 -4 -4 -4 -4 -4 -4 -4 -4 -3 -2 -2 -1 -1 0 1 1 1 1 2 2 1 1 0 -0 -0 -0
-5 -5 -5 -4 -3 -3 -3 -2 -2 -2 -2 -3 -3 -3 -3 -4 -4 -4 -5 -5 -4 -5 -5 -4 -4 -4 -3 -3 -2 -2 -1 -0 0 1 1 1 1 1 1 1 -1 -1 -1 -2
-5 -4 -4 -3 -2 -2 -2 -3 -3 -3 -4 -3 -3 -3 -3 -4 -4 -4 -4 -4 -4 -4 -5 -5 -5 -5 -4 -4 -3 -3 -3 -2 -1 -1 -1 -0 0 1 -0 -1 -2 -2 -3 -4
-3 -3 -4 -3 -2 -2 -3 -3 -3 -3 -3 -3 -3 -3 -3 -3 -3 -3 -4 -5 -5 -5 -5 -5 -5 -5 -5 -5 -4 -4 -4 -3 -3 -2 -2 -2 -2 -2 -2 -3 -3 -3 -4 -5
-3 -3 -3 -2 -2 -2 -3 -3 -3 -3 -3 -2 -2 -3 -3 -3 -3 -3 -3 -3 -4 -5 -4 -5 -5 -5 -5 -5 -5 -5 -4 -4 -3 -3 -3 -3 -3 -3 -3 -4 -4 -4 -5 -5
-2 -3 -4 -3 -3 -2 -3 -3 -3 -3 -3 -2 -3 -3 -3 -3 -3 -3 -4 -4 -4 -4 -4 -4 -5 -5 -5 -5 -5 -5 -5 -5 -4 -4 -4 -4 -4 -4 -4 -5 -5 -6 -6 -5
-2 -2 -2 -4 -3 -2 -3 -3 -3 -3 -3 -3 -2 -3 -3 -3 -3 -4 -4 -5 -5 -5 -4 -4 -4 -5 -5 -6 -5 -5 -5 -5 -5 -5 -5 -5 -5 -5 -5 -6 -6 -5 -5 -5
-2 -2 -2 -3 -3 -3 -3 -3 -3 -3 -3 -3 -3 -2 -2 -3 -4 -4 -4 -5 -6 -5 -5 -5 -4 -4 -5 -5 -6 -6 -5 -5 -5 -5 -6 -6 -6 -6 -6 -6 -6 -6 -5 -5
-3 -3 -2 -3 -3 -3 -3 -3 -3 -3 -3 -3 -3 -3 -3 -3 -4 -4 -5 -6 -5 -6 -6 -5 -5 -4 -4 -4 -5 -6 -6 -6 -6 -6 -6 -6 -6 -6 -6 -6 -6 -5 -5 -5
-3 -3 -3 -3 -2 -3 -3 -3 -3 -3 -3 -3 -3 -3 -2 -3 -4 -5 -6 -6 -6 -6 -5 -5 -5 -5 -4 -5 -5 -5 -6 -6 -6 -6 -6 -6 -6 -6 -5 -5 -5 -5 -5 -5
-7 -6 -3 -3 -3 -3 -3 -4 -4 -4 -3 -3 -3 -3 -3 -4 -4 -5 -6 -6 -7 -6 -6 -5 -5 -5 -5 -5 -5 -5 -5 -5 -6 -6 -6 -6 -5 -5 -5 -5 -5 -5 -5 -6
-8 -8 -5 -3 -4 -3 -4 -4 -4 -4 -4 -4 -4 -4 -3 -4 -4 -5 -6 -6 -7 -7 -6 -6 -5 -5 -5 -5 -5 -5 -5 -5 -5 -5 -5 -5 -5 -5 -5 -6 -6 -6 -6 -7

GFSNGP_850_dewp_246.txt.gz
Dewpoint
-3 -4 -4 -4 -6 -7 -5 -2 -0 -3 -7 -8 -8 -9 -2 -2 -2 -3 -2 -2 -5 -6 -7 -8 -9 -10 -10 -10 -10 -10 -10 -9 -8 -7 -6 -6 -5 -4 -3 -0 4 10 10 10
-5 -4 -5 -4 -5 -6 -7 -8 -8 -8 -3 -5 -4 -4 -5 -5 -5 -5 -5 -6 -6 -5 -5 -6 -6 -6 -7 -7 -7 -7 -8 -8 -7 -7 -7 -6 -5 -4 -3 -4 -3 -1 2 9
-5 -4 -4 -8 -5 -6 -4 -3 -4 -1 -4 -6 -4 -4 -5 -5 -5 -5 -6 -7 -8 -8 -6 -6 -6 -5 -7 -7 -6 -7 -7 -8 -8 -8 -7 -7 -5 -3 -1 -2 -3 -3 -2 0
-6 -4 -9 -8 -7 -5 -3 -5 -6 -7 -6 -6 -6 -6 -5 -5 -5 -5 -5 -6 -5 -5 -6 -6 -6 -7 -8 -8 -8 -8 -8 -7 -7 -7 -8 -8 -6 -5 -5 -3 -2 -3 -3 -5
-6 -4 -4 -4 -1 -3 -2 -5 -8 -7 -6 -5 -5 -6 -5 -4 -5 -5 -5 -5 -5 -4 -5 -5 -5 -5 -5 -6 -6 -6 -6 -7 -8 -9 -8 -7 -8 -7 -4 -3 -3 -2 -3 -4
-8 -5 -4 -3 -5 -7 -6 -1 -7 -8 -6 -5 -4 -2 -3 -4 -4 -4 -4 -4 -5 -5 -4 -4 -4 -4 -4 -4 -5 -5 -5 -5 -5 -6 -7 -7 -7 -6 -6 -5 -4 -2 -2 -3
-9 -6 -3 -5 -7 -7 -2 -2 -8 -8 -8 -5 -3 -4 -5 -6 -5 -4 -3 -3 -4 -4 -4 -4 -4 -4 -4 -4 -4 -3 -3 -4 -4 -5 -5 -6 -6 -6 -6 -6 -2 -1 -2 -3
-6 -7 -3 -6 -7 -5 -6 -7 -7 -8 -9 -8 -6 -7 -6 -4 -3 -3 -3 -3 -2 -3 -3 -3 -4 -4 -3 -3 -3 -2 -2 -1 -2 -3 -4 -4 -6 -6 -6 -6 -4 -1 -0 -2
-4 -4 -7 -8 -7 -8 -7 -7 -6 -6 -6 -5 -4 -3 -3 -3 -3 -3 -3 -3 -4 -4 -5 -5 -4 -4 -4 -4 -4 -4 -3 -3 -1 -0 -2 -3 -3 -5 -5 -5 -3 -3 -2 -4
-5 -7 -7 -8 -8 -6 -5 -4 -4 -3 -3 -3 -3 -3 -3 -3 -3 -3 -3 -3 -3 -3 -3 -2 -2 -2 -2 -2 -1 -1 -1 -2 -4 -1 1 -1 -2 -3 -3 -4 -3 -3 -3 -3
-5 -6 -7 -7 -6 -5 -4 -3 -3 -4 -4 -3 -3 -3 -3 -3 -3 -2 -2 -2 -2 -2 -2 -2 -2 -2 -2 -2 -1 -1 -1 -1 -2 -2 -1 1 1 0 -2 -2 -2 -2 -3 -2
-4 -8 -6 -5 -5 -3 -2 -3 -3 -3 -4 -4 -4 -3 -3 -3 -3 -2 -3 -3 -3 -4 -4 -4 -4 -4 -4 -3 -3 -3 -2 -2 -2 -1 -1 -2 -0 1 2 0 -1 0 0 -1
-6 -6 -7 -5 -2 -3 -3 -3 -3 -3 -3 -3 -4 -3 -3 -3 -3 -3 -3 -4 -4 -5 -5 -5 -5 -5 -5 -4 -4 -4 -4 -4 -4 -3 -3 -2 -2 -1 -0 0 1 1 1 1
-9 -7 -4 -4 -4 -4 -4 -4 -4 -4 -3 -3 -3 -4 -3 -3 -3 -3 -4 -4 -4 -4 -5 -5 -5 -5 -5 -5 -6 -6 -5 -5 -5 -4 -3 -3 -2 -1 -1 1 -0 0 2 2
-4 -4 -5 -5 -6 -6 -5 -4 -4 -4 -3 -3 -4 -4 -4 -3 -3 -3 -3 -3 -4 -4 -4 -4 -4 -4 -4 -5 -6 -6 -6 -5 -5 -5 -4 -4 -4 -3 -2 -1 0 1 -1 0
-3 -5 -6 -7 -5 -5 -5 -4 -3 -3 -3 -4 -4 -4 -4 -3 -3 -3 -3 -3 -4 -4 -4 -4 -4 -4 -4 -5 -6 -6 -6 -5 -5 -5 -4 -4 -3 -3 -2 -2 -1 -1 -0 0
-3 -4 -7 -5 -4 -3 -3 -3 -3 -3 -3 -4 -4 -3 -3 -3 -3 -3 -3 -3 -4 -4 -5 -5 -5 -4 -4 -5 -6 -6 -6 -5 -5 -5 -4 -4 -4 -3 -2 -1 -1 -1 -0 0
-4 -5 -4 -4 -6 -6 -4 -3 -3 -4 -4 -4 -3 -3 -2 -3 -3 -3 -4 -4 -5 -6 -6 -6 -5 -4 -5 -5 -5 -5 -5 -5 -5 -5 -4 -4 -3 -2 -2 -1 -1 -0 0 0
-5 -4 -5 -6 -4 -5 -4 -3 -4 -4 -3 -3 -3 -3 -3 -3 -3 -3 -4 -4 -5 -6 -6 -6 -5 -5 -5 -5 -6 -6 -5 -5 -5 -5 -4 -4 -3 -3 -2 -1 -1 -1 -1 -1
-4 -4 -5 -5 -5 -4 -4 -4 -3 -4 -3 -3 -3 -3 -3 -3 -3 -3 -4 -5 -5 -6 -6 -6 -6 -5 -5 -5 -5 -6 -6 -6 -5 -5 -5 -4 -4 -4 -3 -3 -3 -2 -2 -3
-4 -3 -4 -5 -5 -6 -4 -4 -4 -4 -4 -3 -3 -3 -4 -3 -4 -3 -4 -5 -5 -6 -6 -6 -5 -5 -5 -5 -6 -6 -6 -6 -5 -5 -5 -5 -4 -4 -4 -4 -3 -3 -3 -4
-3 -6 -7 -7 -6 -5 -5 -5 -4 -5 -4 -4 -4 -3 -4 -3 -4 -4 -4 -5 -6 -7 -6 -6 -6 -5 -5 -5 -5 -6 -6 -6 -6 -6 -5 -5 -5 -5 -5 -5 -5 -5 -5 -5
-7 -8 -10 -10 -9 -7 -5 -4 -5 -5 -5 -4 -4 -4 -4 -4 -4 -4 -5 -5 -6 -6 -6 -6 -6 -6 -5 -5 -6 -6 -6 -6 -6 -6 -6 -6 -5 -6 -6 -6 -6 -6 -6 -5
-10 -10 -12 -11 -11 -10 -7 -5 -4 -5 -5 -5 -5 -4 -5 -4 -4 -4 -5 -5 -6 -6 -6 -6 -6 -6 -6 -6 -6 -6 -6 -6 -6 -6 -6 -6 -6 -6 -6 -6 -6 -6 -6 -6
-12 -13 -9 -7 -6 -5 -6 -5 -4 -4 -4 -5 -5 -5 -5 -4 -4 -4 -5 -6 -6 -6 -6 -6 -6 -6 -6 -6 -6 -6 -6 -6 -6 -6 -6 -6 -6 -6 -6 -6 -6 -6 -6 -5
-7 -8 -8 -8 -8 -6 -6 -4 -3 -5 -4 -4 -5 -5 -6 -5 -5 -4 -5 -5 -6 -6 -6 -6 -7 -7 -6 -6 -6 -6 -6 -6 -6 -6 -6 -7 -7 -7 -6 -6 -6 -6 -6 -5
-10 -11 -9 -9 -9 -8 -9 -7 -5 -5 -4 -3 -4 -5 -6 -6 -6 -5 -5 -6 -6 -6 -7 -6 -6 -6 -7 -7 -6 -6 -6 -6 -6 -6 -6 -6 -6 -6 -6 -6 -6 -6 -6 -5